SWA3622 KOKC-KMDW

Flight info

Callsign SWA3622
Flight time 1h 36m
Altitude 39000
Route TRUPR3 TRUPR WELTS MAGOO ENDEE8
Aircraft B38M/M-SDE1FGHILORVWXY/HB1

Departure

Time 2026-04-26 01:13
Airport OKC Will Rogers World Airport (KOKC)

Arrival

Time 2026-04-26 02:49
Airport Chicago Midway International Airport (KMDW)
Time Latitude Longitude Altitude Speed Heading
2026-04-26 00:18 35.39577 -97.59898 1301 ft 0 kts 181°
2026-04-26 01:02 35.39580 -97.59898 1301 ft 3 kts 180°
2026-04-26 01:03 35.39606 -97.59896 1302 ft 4 kts 199°
2026-04-26 01:03 35.39625 -97.59878 1303 ft 4 kts 240°
2026-04-26 01:03 35.39632 -97.59851 1303 ft 2 kts 270°
2026-04-26 01:03 35.39632 -97.59845 1304 ft 0 kts 270°
2026-04-26 01:07 35.39632 -97.59852 1303 ft 3 kts 270°
2026-04-26 01:07 35.39632 -97.59913 1302 ft 12 kts 270°
2026-04-26 01:07 35.39618 -97.60042 1297 ft 17 kts 247°
2026-04-26 01:08 35.39572 -97.60158 1295 ft 8 kts 243°
2026-04-26 01:08 35.39565 -97.60179 1295 ft 1 kts 248°
2026-04-26 01:08 35.39559 -97.60198 1295 ft 3 kts 248°
2026-04-26 01:08 35.39550 -97.60225 1295 ft 0 kts 248°
2026-04-26 01:09 35.39548 -97.60233 1295 ft 2 kts 254°
2026-04-26 01:09 35.39570 -97.60270 1294 ft 10 kts 317°
2026-04-26 01:10 35.39651 -97.60365 1292 ft 20 kts 319°
2026-04-26 01:10 35.39737 -97.60402 1292 ft 20 kts 359°
2026-04-26 01:10 35.39877 -97.60404 1293 ft 20 kts 359°
2026-04-26 01:10 35.40017 -97.60405 1295 ft 20 kts 360°
2026-04-26 01:11 35.40151 -97.60405 1298 ft 19 kts
2026-04-26 01:11 35.40286 -97.60404 1299 ft 20 kts
2026-04-26 01:11 35.40425 -97.60402 1299 ft 20 kts 359°
2026-04-26 01:11 35.40564 -97.60417 1298 ft 7 kts 327°
2026-04-26 01:12 35.40579 -97.60458 1299 ft 4 kts 272°
2026-04-26 01:12 35.40578 -97.60497 1299 ft 5 kts 268°
2026-04-26 01:12 35.40566 -97.60557 1299 ft 12 kts 225°
2026-04-26 01:12 35.40398 -97.60570 1297 ft 51 kts 179°
2026-04-26 01:13 35.39834 -97.60567 1295 ft 115 kts 180°
2026-04-26 01:13 35.38798 -97.60560 1315 ft 178 kts 178°
2026-04-26 01:13 35.37408 -97.60572 1588 ft 218 kts 178°
2026-04-26 01:13 35.35851 -97.60589 2467 ft 222 kts 178°
2026-04-26 01:14 35.34436 -97.60073 3785 ft 218 kts 147°
2026-04-26 01:14 35.33501 -97.58485 4383 ft 250 kts 106°
2026-04-26 01:14 35.33497 -97.56337 5392 ft 254 kts 82°
2026-04-26 01:14 35.33900 -97.54317 6640 ft 242 kts 68°
2026-04-26 01:15 35.34855 -97.52493 6945 ft 269 kts 49°
2026-04-26 01:15 35.36019 -97.50588 7465 ft 289 kts 52°
2026-04-26 01:15 35.37215 -97.48522 8074 ft 304 kts 52°
2026-04-26 01:15 35.38427 -97.46387 8841 ft 312 kts 53°
2026-04-26 01:16 35.39675 -97.44166 9663 ft 320 kts 52°
2026-04-26 01:16 35.40943 -97.41889 10382 ft 328 kts 52°
2026-04-26 01:16 35.42263 -97.39508 10854 ft 346 kts 53°
2026-04-26 01:16 35.43643 -97.37009 11376 ft 360 kts 53°
2026-04-26 01:17 35.45059 -97.34444 12077 ft 365 kts 53°
2026-04-26 01:17 35.46489 -97.31854 12851 ft 370 kts 52°
2026-04-26 01:17 35.47943 -97.29221 13590 ft 374 kts 52°
2026-04-26 01:17 35.49414 -97.26553 14268 ft 378 kts 52°
2026-04-26 01:18 35.50876 -97.23901 14944 ft 381 kts 52°
2026-04-26 01:18 35.52366 -97.21195 15613 ft 384 kts 52°
2026-04-26 01:18 35.53872 -97.18457 16277 ft 387 kts 52°
2026-04-26 01:18 35.55386 -97.15705 16937 ft 391 kts 52°
2026-04-26 01:19 35.56913 -97.12925 17556 ft 395 kts 52°
2026-04-26 01:19 35.58456 -97.10115 18179 ft 398 kts 52°
2026-04-26 01:19 35.60006 -97.07290 18737 ft 400 kts 52°
2026-04-26 01:19 35.61569 -97.04438 19288 ft 403 kts 52°
2026-04-26 01:20 35.63142 -97.01566 19843 ft 405 kts 52°
2026-04-26 01:20 35.64719 -96.98684 20375 ft 408 kts 52°
2026-04-26 01:20 35.66284 -96.95752 20889 ft 412 kts 56°
2026-04-26 01:20 35.67706 -96.92727 21414 ft 414 kts 56°
2026-04-26 01:21 35.69165 -96.89655 21931 ft 417 kts 54°
2026-04-26 01:21 35.70897 -96.86828 22418 ft 414 kts 44°
2026-04-26 01:21 35.72782 -96.84122 22901 ft 418 kts 45°
2026-04-26 01:21 35.74676 -96.81393 23403 ft 420 kts 45°
2026-04-26 01:22 35.76579 -96.78658 23804 ft 422 kts 44°
2026-04-26 01:22 35.78502 -96.75894 24197 ft 425 kts 44°
2026-04-26 01:22 35.80431 -96.73120 24576 ft 428 kts 44°
2026-04-26 01:22 35.82375 -96.70322 24955 ft 431 kts 44°
2026-04-26 01:23 35.84329 -96.67507 25324 ft 434 kts 44°
2026-04-26 01:23 35.86302 -96.64661 25692 ft 437 kts 44°
2026-04-26 01:23 35.88283 -96.61803 26049 ft 440 kts 44°
2026-04-26 01:23 35.90273 -96.58929 26408 ft 443 kts 44°
2026-04-26 01:24 35.92280 -96.56028 26752 ft 445 kts 44°
2026-04-26 01:24 35.94299 -96.53107 27101 ft 448 kts 44°
2026-04-26 01:24 35.96300 -96.50210 27447 ft 451 kts 44°
2026-04-26 01:24 35.98341 -96.47253 27788 ft 453 kts 44°
2026-04-26 01:25 36.00399 -96.44268 28110 ft 457 kts 44°
2026-04-26 01:25 36.02461 -96.41275 28403 ft 460 kts 44°
2026-04-26 01:25 36.04540 -96.38252 28739 ft 462 kts 44°
2026-04-26 01:25 36.06631 -96.35211 29049 ft 465 kts 44°
2026-04-26 01:26 36.08731 -96.32156 29376 ft 468 kts 43°
2026-04-26 01:26 36.10847 -96.29073 29726 ft 470 kts 43°
2026-04-26 01:26 36.12967 -96.25980 30002 ft 472 kts 43°
2026-04-26 01:26 36.15098 -96.22871 30263 ft 474 kts 43°
2026-04-26 01:27 36.17205 -96.19792 30526 ft 476 kts 43°
2026-04-26 01:27 36.19351 -96.16655 30784 ft 478 kts 43°
2026-04-26 01:27 36.21505 -96.13501 31062 ft 480 kts 43°
2026-04-26 01:27 36.23663 -96.10340 31320 ft 482 kts 43°
2026-04-26 01:28 36.25830 -96.07163 31589 ft 483 kts 42°
2026-04-26 01:28 36.28000 -96.03978 31889 ft 484 kts 42°
2026-04-26 01:28 36.30175 -96.00782 32142 ft 486 kts 42°
2026-04-26 01:28 36.32359 -95.97570 32379 ft 488 kts 42°
2026-04-26 01:29 36.34552 -95.94342 32629 ft 489 kts 42°
2026-04-26 01:29 36.36752 -95.91100 32922 ft 490 kts 42°
2026-04-26 01:29 36.38945 -95.87866 33320 ft 488 kts 42°
2026-04-26 01:29 36.41133 -95.84636 33685 ft 487 kts 42°
2026-04-26 01:30 36.43288 -95.81451 33982 ft 486 kts 42°
2026-04-26 01:30 36.45460 -95.78238 34268 ft 486 kts 42°
2026-04-26 01:30 36.47631 -95.75024 34537 ft 485 kts 42°
2026-04-26 01:30 36.49802 -95.71807 34790 ft 485 kts 42°
2026-04-26 01:31 36.51967 -95.68597 35106 ft 483 kts 42°
2026-04-26 01:31 36.54116 -95.65405 35475 ft 480 kts 42°
2026-04-26 01:31 36.56257 -95.62223 35727 ft 479 kts 42°
2026-04-26 01:31 36.58398 -95.59039 35935 ft 479 kts 42°
2026-04-26 01:32 36.60535 -95.55858 36144 ft 479 kts 42°
2026-04-26 01:32 36.62679 -95.52662 36367 ft 479 kts 43°
2026-04-26 01:32 36.64819 -95.49468 36580 ft 479 kts 43°
2026-04-26 01:32 36.66950 -95.46287 36775 ft 479 kts 43°
2026-04-26 01:33 36.71194 -95.39941 36797 ft 478 kts 43°
2026-04-26 01:33 36.75444 -95.33573 36811 ft 478 kts 43°
2026-04-26 01:34 36.79718 -95.27158 36803 ft 483 kts 44°
2026-04-26 01:34 36.84024 -95.20682 36821 ft 484 kts 44°
2026-04-26 01:35 36.86256 -95.17321 36823 ft 484 kts 44°
2026-04-26 01:36 36.89320 -95.12701 36833 ft 485 kts 44°
2026-04-26 01:37 36.95790 -95.02922 36831 ft 489 kts 44°
2026-04-26 01:37 37.00125 -94.96355 36832 ft 489 kts 44°
2026-04-26 01:38 37.04456 -94.89780 36832 ft 488 kts 43°
2026-04-26 01:38 37.08775 -94.83211 36831 ft 488 kts 43°
2026-04-26 01:39 37.13090 -94.76636 36832 ft 488 kts 43°
2026-04-26 01:39 37.17403 -94.70050 36834 ft 489 kts 43°
2026-04-26 01:40 37.21693 -94.63486 36785 ft 489 kts 43°
2026-04-26 01:40 37.26012 -94.56864 36796 ft 489 kts 43°
2026-04-26 01:41 37.30321 -94.50246 36832 ft 488 kts 43°
2026-04-26 01:41 37.34587 -94.43679 36838 ft 488 kts 43°
2026-04-26 01:42 37.38875 -94.37067 36837 ft 488 kts 43°
2026-04-26 01:42 37.43157 -94.30449 36840 ft 487 kts 44°
2026-04-26 01:43 37.47435 -94.23825 36839 ft 487 kts 44°
2026-04-26 01:43 37.51710 -94.17191 36848 ft 487 kts 44°
2026-04-26 01:44 37.55976 -94.10559 36838 ft 487 kts 44°
2026-04-26 01:44 37.60237 -94.03921 36842 ft 487 kts 44°
2026-04-26 01:45 37.64499 -93.97269 36840 ft 487 kts 44°
2026-04-26 01:45 37.68747 -93.90623 36830 ft 485 kts 44°
2026-04-26 01:46 37.72987 -93.83979 36845 ft 486 kts 44°
2026-04-26 01:46 37.77192 -93.77373 36844 ft 484 kts 45°
2026-04-26 01:47 37.81396 -93.70758 36835 ft 482 kts 45°
2026-04-26 01:47 37.85596 -93.64135 36839 ft 483 kts 45°
2026-04-26 01:48 37.89791 -93.57508 36840 ft 482 kts 45°
2026-04-26 01:48 37.93977 -93.50880 36835 ft 481 kts 45°
2026-04-26 01:49 37.98153 -93.44256 36838 ft 481 kts 45°
2026-04-26 01:49 38.02342 -93.37595 36845 ft 486 kts 45°
2026-04-26 01:50 38.06556 -93.30883 36867 ft 491 kts 45°
2026-04-26 01:50 38.10832 -93.24058 36864 ft 492 kts 45°
2026-04-26 01:51 38.15088 -93.17249 36897 ft 492 kts 46°
2026-04-26 01:51 38.19328 -93.10452 36863 ft 489 kts 46°
2026-04-26 01:52 38.23537 -93.03691 36876 ft 490 kts 46°
2026-04-26 01:52 38.27753 -92.96906 36871 ft 488 kts 46°
2026-04-26 01:53 38.31966 -92.90111 36867 ft 488 kts 46°
2026-04-26 01:53 38.36174 -92.83308 36882 ft 488 kts 46°
2026-04-26 01:54 38.40377 -92.76501 36877 ft 488 kts 46°
2026-04-26 01:54 38.44574 -92.69689 36883 ft 488 kts 46°
2026-04-26 01:55 38.48762 -92.62877 36888 ft 487 kts 46°
2026-04-26 01:55 38.52935 -92.56075 36890 ft 486 kts 46°
2026-04-26 01:56 38.57077 -92.49308 36889 ft 486 kts 46°
2026-04-26 01:56 38.61240 -92.42494 36897 ft 486 kts 46°
2026-04-26 01:57 38.65399 -92.35672 36903 ft 486 kts 46°
2026-04-26 01:57 38.69544 -92.28860 36920 ft 485 kts 46°
2026-04-26 01:58 38.72978 -92.23207 36887 ft 482 kts 46°
2026-04-26 01:58 38.77095 -92.16416 36896 ft 482 kts 46°
2026-04-26 01:59 38.81212 -92.09614 36897 ft 482 kts 46°
2026-04-26 01:59 38.85316 -92.02817 36892 ft 482 kts 46°
2026-04-26 02:00 38.89400 -91.96040 36909 ft 482 kts 46°
2026-04-26 02:00 38.93501 -91.89220 36920 ft 483 kts 46°
2026-04-26 02:01 38.97629 -91.82342 36926 ft 488 kts 46°
2026-04-26 02:01 39.02101 -91.75923 36911 ft 471 kts 29°
2026-04-26 02:02 39.07355 -91.70843 36915 ft 473 kts 31°
2026-04-26 02:02 39.12603 -91.65699 36938 ft 474 kts 31°
2026-04-26 02:03 39.17825 -91.60580 36934 ft 475 kts 31°
2026-04-26 02:03 39.23081 -91.55417 36930 ft 475 kts 31°
2026-04-26 02:04 39.28345 -91.50237 36925 ft 476 kts 31°
2026-04-26 02:04 39.33627 -91.45030 36928 ft 477 kts 31°
2026-04-26 02:05 39.38877 -91.39843 36934 ft 478 kts 32°
2026-04-26 02:05 39.44159 -91.34614 36938 ft 478 kts 32°
2026-04-26 02:06 39.49433 -91.29383 36893 ft 478 kts 32°
2026-04-26 02:06 39.54716 -91.24134 36865 ft 478 kts 32°
2026-04-26 02:07 39.59988 -91.18884 36848 ft 477 kts 32°
2026-04-26 02:07 39.65218 -91.13667 36833 ft 477 kts 32°
2026-04-26 02:08 39.70483 -91.08404 36832 ft 477 kts 32°
2026-04-26 02:08 39.75756 -91.03123 36834 ft 477 kts 32°
2026-04-26 02:09 39.80974 -90.97887 36879 ft 477 kts 32°
2026-04-26 02:09 39.86224 -90.92608 36967 ft 476 kts 32°
2026-04-26 02:10 39.91470 -90.87321 36969 ft 476 kts 32°
2026-04-26 02:10 39.96725 -90.82019 36966 ft 476 kts 32°
2026-04-26 02:11 40.01915 -90.76757 36751 ft 468 kts 34°
2026-04-26 02:11 40.04382 -90.73938 36007 ft 472 kts 37°
2026-04-26 02:11 40.06838 -90.71113 35391 ft 470 kts 37°
2026-04-26 02:11 40.09264 -90.68344 34749 ft 469 kts 37°
2026-04-26 02:12 40.11724 -90.65544 34109 ft 469 kts 37°
2026-04-26 02:12 40.14181 -90.62748 33311 ft 469 kts 37°
2026-04-26 02:12 40.16651 -90.59935 32522 ft 470 kts 37°
2026-04-26 02:12 40.19105 -90.57138 32008 ft 465 kts 37°
2026-04-26 02:13 40.21525 -90.54376 31618 ft 457 kts 37°
2026-04-26 02:13 40.23905 -90.51659 31212 ft 451 kts 37°
2026-04-26 02:13 40.26253 -90.48962 30872 ft 444 kts 37°
2026-04-26 02:13 40.28547 -90.46321 30661 ft 434 kts 37°
2026-04-26 02:14 40.30778 -90.43752 30550 ft 421 kts 37°
2026-04-26 02:14 40.32922 -90.41280 30438 ft 410 kts 37°
2026-04-26 02:14 40.35058 -90.38816 30304 ft 409 kts 37°
2026-04-26 02:14 40.37189 -90.36356 30159 ft 407 kts 37°
2026-04-26 02:15 40.39309 -90.33905 29980 ft 405 kts 37°
2026-04-26 02:15 40.41421 -90.31462 29826 ft 404 kts 37°
2026-04-26 02:15 40.43524 -90.29027 29677 ft 402 kts 37°
2026-04-26 02:15 40.45623 -90.26595 29543 ft 401 kts 37°
2026-04-26 02:16 40.47713 -90.24171 29404 ft 400 kts 38°
2026-04-26 02:16 40.49792 -90.21758 29251 ft 399 kts 37°
2026-04-26 02:16 40.51868 -90.19346 29095 ft 397 kts 37°
2026-04-26 02:16 40.53934 -90.16936 28893 ft 397 kts 38°
2026-04-26 02:17 40.55982 -90.14506 28347 ft 397 kts 38°
2026-04-26 02:17 40.58026 -90.12082 27903 ft 394 kts 38°
2026-04-26 02:17 40.60034 -90.09700 27454 ft 392 kts 38°
2026-04-26 02:17 40.62062 -90.07294 26981 ft 391 kts 38°
2026-04-26 02:18 40.64079 -90.04899 26511 ft 390 kts 39°
2026-04-26 02:18 40.66086 -90.02513 26042 ft 389 kts 39°
2026-04-26 02:18 40.68095 -90.00123 25572 ft 388 kts 39°
2026-04-26 02:18 40.70074 -89.97766 25132 ft 387 kts 39°
2026-04-26 02:19 40.72069 -89.95390 24671 ft 387 kts 39°
2026-04-26 02:19 40.74064 -89.93011 24205 ft 386 kts 39°
2026-04-26 02:19 40.76043 -89.90607 23733 ft 387 kts 43°
2026-04-26 02:19 40.77890 -89.88010 23167 ft 388 kts 45°
2026-04-26 02:20 40.79740 -89.85422 22670 ft 386 kts 45°
2026-04-26 02:20 40.81581 -89.82862 22217 ft 383 kts 44°
2026-04-26 02:20 40.83391 -89.80355 21866 ft 370 kts 45°
2026-04-26 02:20 40.85150 -89.77921 21354 ft 362 kts 45°
2026-04-26 02:21 40.86838 -89.75507 20890 ft 354 kts 51°
2026-04-26 02:21 40.88111 -89.72767 20510 ft 345 kts 59°
2026-04-26 02:21 40.89315 -89.70019 20199 ft 346 kts 58°
2026-04-26 02:21 40.90528 -89.67273 19864 ft 344 kts 59°
2026-04-26 02:22 40.91719 -89.64573 19518 ft 344 kts 60°
2026-04-26 02:22 40.92920 -89.61849 19169 ft 342 kts 60°
2026-04-26 02:22 40.94115 -89.59138 18828 ft 341 kts 60°
2026-04-26 02:22 40.95306 -89.56434 18485 ft 339 kts 60°
2026-04-26 02:23 40.96490 -89.53741 18121 ft 338 kts 61°
2026-04-26 02:23 40.97669 -89.51060 17747 ft 335 kts 61°
2026-04-26 02:23 40.98838 -89.48396 17402 ft 334 kts 61°
2026-04-26 02:23 40.99998 -89.45754 17007 ft 330 kts 61°
2026-04-26 02:24 41.01151 -89.43122 16697 ft 329 kts 61°
2026-04-26 02:24 41.02295 -89.40511 16378 ft 327 kts 62°
2026-04-26 02:24 41.03433 -89.37910 16058 ft 326 kts 62°
2026-04-26 02:24 41.04566 -89.35318 15733 ft 324 kts 62°
2026-04-26 02:25 41.05689 -89.32746 15412 ft 322 kts 62°
2026-04-26 02:25 41.06807 -89.30186 15083 ft 320 kts 62°
2026-04-26 02:25 41.07918 -89.27637 14770 ft 318 kts 62°
2026-04-26 02:25 41.09006 -89.25141 14455 ft 316 kts 62°
2026-04-26 02:26 41.10104 -89.22617 14140 ft 314 kts 62°
2026-04-26 02:26 41.11191 -89.20120 13814 ft 312 kts 63°
2026-04-26 02:26 41.12274 -89.17629 13420 ft 310 kts 62°
2026-04-26 02:26 41.13346 -89.15159 13056 ft 307 kts 62°
2026-04-26 02:27 41.14410 -89.12707 12737 ft 306 kts 62°
2026-04-26 02:27 41.15468 -89.10269 12316 ft 304 kts 62°
2026-04-26 02:27 41.16517 -89.07845 11874 ft 301 kts 62°
2026-04-26 02:27 41.17556 -89.05447 11444 ft 298 kts 63°
2026-04-26 02:28 41.18585 -89.03066 11043 ft 295 kts 62°
2026-04-26 02:28 41.19592 -89.00737 10630 ft 292 kts 62°
2026-04-26 02:28 41.20591 -88.98422 10228 ft 286 kts 62°
2026-04-26 02:28 41.21519 -88.96125 9916 ft 276 kts 67°
2026-04-26 02:29 41.22321 -88.93816 9761 ft 275 kts 66°
2026-04-26 02:29 41.23129 -88.91515 9609 ft 275 kts 67°
2026-04-26 02:29 41.23941 -88.89219 9491 ft 274 kts 66°
2026-04-26 02:29 41.24753 -88.86933 9354 ft 274 kts 66°
2026-04-26 02:30 41.25564 -88.84652 9347 ft 272 kts 66°
2026-04-26 02:30 41.26371 -88.82386 9347 ft 271 kts 66°
2026-04-26 02:30 41.27175 -88.80125 9348 ft 271 kts 66°
2026-04-26 02:30 41.27973 -88.77860 9347 ft 270 kts 66°
2026-04-26 02:31 41.28765 -88.75602 9338 ft 267 kts 66°
2026-04-26 02:31 41.29525 -88.73439 9280 ft 256 kts 67°
2026-04-26 02:31 41.30264 -88.71334 9204 ft 248 kts 66°
2026-04-26 02:31 41.31007 -88.69212 9103 ft 260 kts 66°
2026-04-26 02:32 41.31779 -88.67005 9056 ft 266 kts 66°
2026-04-26 02:32 41.32565 -88.64761 9064 ft 269 kts 66°
2026-04-26 02:32 41.33356 -88.62505 9071 ft 268 kts 66°
2026-04-26 02:32 41.34144 -88.60248 9065 ft 269 kts 66°
2026-04-26 02:33 41.34935 -88.57985 9066 ft 269 kts 66°
2026-04-26 02:33 41.35723 -88.55724 9062 ft 269 kts 66°
2026-04-26 02:33 41.36572 -88.53504 9067 ft 270 kts 63°
2026-04-26 02:33 41.37466 -88.51316 9071 ft 269 kts 63°
2026-04-26 02:34 41.38355 -88.49121 9069 ft 270 kts 63°
2026-04-26 02:34 41.39242 -88.46919 9074 ft 269 kts 63°
2026-04-26 02:34 41.40122 -88.44721 9070 ft 269 kts 63°
2026-04-26 02:34 41.40994 -88.42545 9031 ft 270 kts 64°
2026-04-26 02:35 41.41872 -88.40348 8964 ft 268 kts 63°
2026-04-26 02:35 41.42749 -88.38154 8919 ft 268 kts 63°
2026-04-26 02:35 41.43623 -88.35962 8918 ft 267 kts 64°
2026-04-26 02:35 41.44499 -88.33767 8876 ft 269 kts 63°
2026-04-26 02:36 41.45376 -88.31568 8817 ft 267 kts 63°
2026-04-26 02:36 41.46248 -88.29377 8759 ft 267 kts 63°
2026-04-26 02:36 41.47116 -88.27200 8703 ft 260 kts 64°
2026-04-26 02:36 41.47935 -88.25141 8589 ft 243 kts 64°
2026-04-26 02:37 41.48702 -88.23212 8363 ft 233 kts 64°
2026-04-26 02:37 41.49446 -88.21339 8135 ft 222 kts 64°
2026-04-26 02:37 41.50152 -88.19559 7898 ft 212 kts 63°
2026-04-26 02:37 41.50835 -88.17834 7508 ft 210 kts 63°
2026-04-26 02:38 41.51512 -88.16127 7166 ft 206 kts 64°
2026-04-26 02:38 41.52181 -88.14439 6761 ft 206 kts 64°
2026-04-26 02:38 41.52850 -88.12749 6376 ft 204 kts 64°
2026-04-26 02:38 41.53495 -88.11121 6151 ft 192 kts 63°
2026-04-26 02:39 41.54103 -88.09584 5866 ft 183 kts 64°
2026-04-26 02:39 41.54699 -88.08077 5437 ft 183 kts 63°
2026-04-26 02:39 41.55280 -88.06607 5068 ft 180 kts 63°
2026-04-26 02:39 41.55863 -88.05128 4687 ft 178 kts 63°
2026-04-26 02:40 41.56439 -88.03682 4300 ft 176 kts 62°
2026-04-26 02:40 41.57161 -88.02407 4048 ft 168 kts 49°
2026-04-26 02:40 41.57940 -88.01350 3931 ft 151 kts 48°
2026-04-26 02:40 41.58662 -88.00392 3904 ft 144 kts 48°
2026-04-26 02:41 41.59383 -87.99446 3984 ft 149 kts 48°
2026-04-26 02:41 41.59581 -87.99189 4015 ft 152 kts 48°
2026-04-26 02:43 41.59935 -87.98728 4064 ft 159 kts 47°
2026-04-26 02:43 41.60761 -87.97659 4097 ft 170 kts 47°
2026-04-26 02:43 41.61629 -87.96545 4055 ft 176 kts 47°
2026-04-26 02:44 41.62521 -87.95409 4033 ft 176 kts 46°
2026-04-26 02:44 41.63410 -87.94279 4003 ft 176 kts 46°
2026-04-26 02:44 41.64301 -87.93151 3995 ft 176 kts 46°
2026-04-26 02:44 41.65183 -87.92036 3991 ft 177 kts 46°
2026-04-26 02:45 41.66081 -87.90899 3996 ft 178 kts 46°
2026-04-26 02:45 41.66982 -87.89763 3845 ft 178 kts 46°
2026-04-26 02:45 41.67848 -87.88668 3574 ft 163 kts 47°
2026-04-26 02:45 41.68633 -87.87678 3316 ft 147 kts 47°
2026-04-26 02:46 41.69345 -87.86778 3116 ft 138 kts 48°
2026-04-26 02:46 41.70045 -87.85893 2903 ft 138 kts 48°
2026-04-26 02:46 41.70738 -87.85018 2701 ft 136 kts 47°
2026-04-26 02:46 41.71418 -87.84157 2496 ft 134 kts 47°
2026-04-26 02:47 41.72099 -87.83296 2322 ft 134 kts 47°
2026-04-26 02:47 41.72769 -87.82449 2135 ft 130 kts 46°
2026-04-26 02:47 41.73192 -87.81914 2022 ft 124 kts 46°
2026-04-26 02:47 41.73806 -87.81137 1857 ft 120 kts 45°
2026-04-26 02:48 41.74408 -87.80375 1672 ft 117 kts 45°
2026-04-26 02:48 41.75187 -87.79387 1424 ft 118 kts 45°
2026-04-26 02:48 41.75598 -87.78865 1337 ft 124 kts 44°
2026-04-26 02:48 41.76246 -87.78045 1140 ft 132 kts 43°
2026-04-26 02:49 41.76931 -87.77183 1011 ft 139 kts 44°
2026-04-26 02:49 41.77623 -87.76307 765 ft 137 kts 43°
2026-04-26 02:49 41.78263 -87.75490 629 ft 113 kts 43°
2026-04-26 02:49 41.78659 -87.74993 620 ft 46 kts 43°
2026-04-26 02:50 41.78779 -87.74817 625 ft 7 kts 78°
2026-04-26 02:50 41.78776 -87.74802 623 ft 2 kts 118°
2026-04-26 02:50 41.78757 -87.74784 626 ft 8 kts 145°
2026-04-26 02:50 41.78740 -87.74753 619 ft 6 kts 93°
2026-04-26 02:51 41.78772 -87.74694 624 ft 12 kts 44°
2026-04-26 02:51 41.78842 -87.74599 626 ft 3 kts 73°
2026-04-26 02:51 41.78836 -87.74569 628 ft 4 kts 129°
2026-04-26 02:51 41.78813 -87.74538 624 ft 6 kts 133°
2026-04-26 02:52 41.78787 -87.74499 622 ft 1 kts 133°
2026-04-26 02:52 41.78786 -87.74498 622 ft 0 kts 133°